This demonstration page uses our WeatherBlox Daily Observations layout. Learn more.

Left ArrowRight Arrow

44.8408, -93.29828

Hourly Observations for September 5, 2017

Temp ( °F °C ) Dew Point ( °F °C ) Humidity (%) Winds ( mph kmh ) Pressure ( in mb ) Visibility ( mi km ) Precip ( " mm )
12:53 am 00:53 Mostly Clear 55 12.8 50 10 83 83 WNW 7 11 29.95 1014 10 16 0.00 0.00
1:53 am 01:53 Clear 54 12.2 49 9.4 83 83 WNW 8 13 29.95 1014 10 16 0.00 0.00
2:53 am 02:53 Clear 53 11.7 49 9.4 86 86 WNW 9 15 29.95 1014 10 16 0.00 0.00
3:53 am 03:53 Clear 53 11.7 48 8.9 83 83 WNW 10 17 29.96 1015 10 16 0.00 0.00
4:53 am 04:53 Clear 53 11.7 47 8.3 80 80 NW 10 17 29.97 1015 10 16 0.00 0.00
5:53 am 05:53 Clear 52 11.1 46 7.8 80 80 WNW 13 20 29.98 1015 10 16 0.00 0.00
6:53 am 06:53 Sunny 51 10.6 46 7.8 83 83 NW 12 19 29.99 1016 10 16 0.00 0.00
7:53 am 07:53 Mostly Sunny 53 11.7 45 7.2 74 74 NW 13 20 30.01 1016 10 16 0.00 0.00
8:53 am 08:53 Mostly Sunny 55 12.8 46 7.8 72 72 NW 16 26 30.01 1016 10 16 0.00 0.00
9:53 am 09:53 Sunny 59 15 45 7.2 60 60 NW 16 26 30.01 1016 10 16 0.00 0.00
10:53 am 10:53 Mostly Sunny 61 16.1 44 6.7 54 54 NW 24 39 30.01 1016 10 16 0.00 0.00
11:53 am 11:53 Mostly Cloudy 61 16.1 41 5 48 48 NW 25 41 30.01 1016 10 16 0.00 0.00
12:53 pm 12:53 Mostly Cloudy 63 17.2 43 6.1 48 48 NNW 18 30 30.01 1016 10 16 0.00 0.00
1:53 pm 13:53 Mostly Cloudy 63 17.2 43 6.1 48 48 NNW 20 31 30.02 1017 10 16 0.00 0.00
2:53 pm 14:53 Cloudy 62 16.7 44 6.7 52 52 NNW 17 28 30.02 1017 10 16 0.00 0.00
3:53 pm 15:53 Cloudy 62 16.7 44 6.7 52 52 NNW 16 26 30.02 1017 10 16 0.00 0.00
4:53 pm 16:53 Cloudy 62 16.7 46 7.8 56 56 NNW 9 15 30.02 1017 10 16 0.00 0.00
5:53 pm 17:53 Cloudy 62 16.7 45 7.2 54 54 NNW 15 24 30.02 1017 10 16 0.00 0.00
6:53 pm 18:53 Cloudy with Light Rain 60 15.6 47 8.3 62 62 N 12 19 30.04 1017 10 16 0.00 0.03
7:53 pm 19:53 Mostly Cloudy 57 13.9 46 7.8 67 67 N 9 15 30.05 1018 10 16 0.00 0.03
8:53 pm 20:53 Mostly Cloudy 57 13.9 46 7.8 67 67 N 10 17 30.07 1018 10 16 0.00 0.00
9:53 pm 21:53 Cloudy 56 13.3 46 7.8 70 70 N 9 15 30.08 1019 10 16 0.00 0.00
10:53 pm 22:53 Mostly Cloudy 56 13.3 46 7.8 70 70 N 8 13 30.08 1019 10 16 0.00 0.00
11:53 pm 23:53 Partly Cloudy 54 12.2 45 7.2 72 72 N 6 9 30.09 1019 10 16 0.00 0.00

Powered by AerisWeather